Chicopee, MA

3:19 PM EST on February 20, 2017 (GMT -0500)
Westover Air Reserve Base / Metropolitan Airport

Weather History for KCEF - March, 2012

Change the Weather History Date:

Friday, March 2, 2012

  Actual Average Record
Temperature  
Mean Temperature 28 °F -  
Max Temperature 33 °F 39 °F 64 °F (2004)
Min Temperature 24 °F 22 °F 14 °F (2006)
Degree Days  
Heating Degree Days 36    
Moisture  
Dew Point 26 °F    
Average Humidity 84    
Maximum Humidity 94    
Minimum Humidity 75    
Precipitation  
Precipitation 0.07 in - - ()
Sea Level Pressure  
Sea Level Pressure 30.06 in    
Wind  
Wind Speed 5 mph (ESE)    
Max Wind Speed 10 mph    
Max Gust Speed -    
Visibility 8 miles    
Events Rain , Snow    
Averages and records for this station are not official NWS values.
T = Trace of Precipitation, MM = Missing Value Source: NWS Daily Summary

Daily Weather History Graph

Daily Weather History Graph

Search for Another Location

Airport or City:

Trip Planner

Search our weather history database for the weather conditions in past years. The results will help you decide how hot, cold, wet, or windy it might be!

Date:

Astronomy

Mar. 02, 2012 Rise Set
Actual Time 6:22 AM EST 5:41 PM EST
Civil Twilight 5:54 AM EST 6:09 PM EST
Nautical Twilight 5:22 AM EST 6:42 PM EST
Astronomical Twilight 4:50 AM EST 7:14 PM EST
Moon 11:46 AM EST (3/2) 2:15 AM EST (3/2)
Length of Visible Light 12h 15m
Length of Day
11h 18m
Waxing Gibbous, 66% of the Moon is Illuminated
Mar 2
Waxing Gibbous
Mar 8
Full
Mar 14
Last Quarter
Mar 22
New
Mar 30
First Quarter

Hourly Weather History & Observations

Time (EST) Temp. Windchill Dew Point Humidity Pressure Visibility Wind Dir Wind Speed Gust Speed Precip Events Conditions
12:55 AM 25.7 °F 15.7 °F 20.5 °F 81% 30.05 in 10.0 mi NNE 10.4 mph - N/A   Overcast
1:55 AM 25.3 °F 16.0 °F 20.3 °F 81% 30.06 in 10.0 mi NNE 9.2 mph - N/A   Overcast
2:55 AM 25.0 °F 18.1 °F 20.5 °F 83% 30.07 in 10.0 mi North 5.8 mph - N/A   Overcast
3:49 AM 24.8 °F 17.9 °F 21.2 °F 86% 30.09 in 10.0 mi NNE 5.8 mph - N/A   Overcast
3:55 AM 25.0 °F 17.1 °F 20.5 °F 83% 30.09 in 10.0 mi NNE 6.9 mph - N/A   Overcast
4:55 AM 25.0 °F 18.1 °F 20.8 °F 84% 30.10 in 10.0 mi NNE 5.8 mph - N/A   Overcast
5:55 AM 25.0 °F 20.7 °F 20.8 °F 84% 30.12 in 10.0 mi NNE 3.5 mph - N/A   Overcast
6:55 AM 25.0 °F - 20.8 °F 84% 30.14 in 10.0 mi Calm Calm - N/A   Overcast
7:39 AM 24.8 °F 20.5 °F 21.2 °F 86% 30.14 in 10.0 mi North 3.5 mph - N/A   Overcast
7:55 AM 25.5 °F - 21.6 °F 85% 30.14 in 10.0 mi Calm Calm - N/A   Overcast
8:21 AM 26.6 °F - 21.2 °F 80% 30.14 in 10.0 mi Calm Calm - N/A   Overcast
8:28 AM 26.6 °F - 21.2 °F 80% 30.15 in 10.0 mi Calm Calm - N/A   Overcast
8:55 AM 26.8 °F - 22.5 °F 84% 30.15 in 10.0 mi Calm Calm - N/A   Overcast
9:55 AM 27.5 °F 23.6 °F 22.8 °F 83% 30.14 in 10.0 mi ENE 3.5 mph - N/A   Overcast
10:55 AM 29.5 °F - 23.5 °F 79% 30.14 in 10.0 mi Calm Calm - N/A   Overcast
11:55 AM 29.1 °F 25.4 °F 24.1 °F 81% 30.15 in 10.0 mi West 3.5 mph - N/A   Overcast
12:55 PM 30.4 °F 24.5 °F 25.0 °F 80% 30.14 in 10.0 mi SW 5.8 mph - N/A   Overcast
1:41 PM 32.0 °F 25.6 °F 24.8 °F 75% 30.13 in 10.0 mi SSW 6.9 mph - N/A   Overcast
1:47 PM 32.0 °F 25.6 °F 24.8 °F 75% 30.12 in 10.0 mi SSW 6.9 mph - N/A   Overcast
1:55 PM 31.3 °F 25.6 °F 25.7 °F 80% 30.12 in 10.0 mi South 5.8 mph - N/A   Overcast
2:25 PM 32.0 °F 26.4 °F 24.8 °F 75% 30.11 in 10.0 mi South 5.8 mph - N/A   Overcast
2:55 PM 32.0 °F 24.8 °F 26.1 °F 79% 30.09 in 10.0 mi SSE 8.1 mph - N/A   Overcast
3:55 PM 32.7 °F 26.4 °F 26.4 °F 78% 30.10 in 10.0 mi SSE 6.9 mph - N/A   Overcast
4:55 PM 32.9 °F - 26.8 °F 78% 30.08 in 10.0 mi Calm Calm - N/A   Overcast
5:16 PM 32.0 °F 28.7 °F 26.6 °F 80% 30.08 in 10.0 mi SE 3.5 mph - N/A Rain Light Freezing Rain
5:17 PM 32.0 °F 27.5 °F 26.6 °F 80% 30.08 in 10.0 mi SE 4.6 mph - N/A   Overcast
5:22 PM 32.0 °F 27.5 °F 28.4 °F 87% 30.08 in 10.0 mi SSE 4.6 mph - N/A   Overcast
5:55 PM 32.0 °F - 28.4 °F 87% 30.08 in 6.0 mi Calm Calm - N/A Snow Light Snow
6:55 PM 31.8 °F - 29.1 °F 90% 30.07 in 10.0 mi Calm Calm - N/A   Overcast
7:13 PM 32.0 °F - 28.4 °F 87% 30.07 in 5.0 mi Calm Calm - N/A Snow Light Snow
7:55 PM 32.7 °F 29.6 °F 28.8 °F 85% 30.06 in 5.0 mi Variable 3.5 mph - 0.00 in Snow Light Snow
8:55 PM 33.1 °F 27.7 °F 27.7 °F 81% 30.04 in 10.0 mi SE 5.8 mph - 0.00 in   Overcast
9:28 PM 33.8 °F 27.7 °F 28.4 °F 81% 30.02 in 10.0 mi ESE 6.9 mph - N/A   Overcast
9:55 PM 32.9 °F 27.5 °F 28.0 °F 82% 30.00 in 10.0 mi SE 5.8 mph - N/A   Overcast
10:24 PM 33.8 °F 27.7 °F 28.4 °F 81% 29.98 in 10.0 mi SSE 6.9 mph - N/A   Overcast
10:53 PM 33.8 °F - 28.4 °F 81% 29.98 in 10.0 mi Calm Calm - N/A   Overcast
10:55 PM 33.1 °F - 28.4 °F 83% 29.98 in 10.0 mi Calm Calm - 0.00 in   Overcast
11:14 PM 32.0 °F 27.5 °F 28.4 °F 87% 29.96 in 3.0 mi SE 4.6 mph - N/A Snow Light Snow
11:15 PM 32.0 °F 28.7 °F 28.4 °F 87% 29.96 in 2.5 mi Variable 3.5 mph - N/A Snow Light Snow
11:16 PM 32.0 °F 28.7 °F 28.4 °F 87% 29.96 in 2.0 mi Variable 3.5 mph - N/A Snow Light Snow
11:19 PM 32.0 °F - 30.2 °F 93% 29.96 in 1.8 mi Calm Calm - N/A Snow Light Snow
11:25 PM 32.0 °F - 30.2 °F 93% 29.95 in 2.0 mi Calm Calm - N/A Snow Light Snow
11:27 PM 32.0 °F - 30.2 °F 93% 29.95 in 2.5 mi Calm Calm - N/A Snow Light Snow
11:30 PM 32.0 °F 28.7 °F 30.2 °F 93% 29.94 in 3.0 mi Variable 3.5 mph - N/A Snow Light Snow
11:47 PM 32.0 °F - 30.2 °F 93% 29.92 in 5.0 mi Calm Calm - N/A Snow Light Snow
11:55 PM 31.5 °F - 30.0 °F 94% 29.92 in 3.0 mi Calm Calm - 0.07 in Snow Light Snow